Weather History for Muscle Shoals, AL

Change the Weather History Date:

Monday, January 7, 2013

  Actual Average Record
Temperature  
Mean Temperature 40 °F 41 °F  
Max Temperature 53 °F 50 °F 72 °F (1907)
Min Temperature 26 °F 31 °F 0 °F (1924)
Degree Days  
Heating Degree Days 25 24  
Month to date heating degree days 172 168  
Since 1 July heating degree days 1270 1404  
Cooling Degree Days 0 0  
Month to date cooling degree days 0 0  
Year to date cooling degree days 0 0  
Moisture  
Dew Point 26 °F    
Average Humidity 62    
Maximum Humidity 85    
Minimum Humidity 38    
Precipitation  
Precipitation 0.00 in 0.14 in 3.75 in (1946)
Month to date precipitation 1.14 1.05  
Year to date precipitation 1.14 1.05  
Snow  
Snow 0.00 in - - ()
Month to date snowfall 0.0  
Since 1 July snowfall T  
Snow Depth 0.00 in    
Sea Level Pressure  
Sea Level Pressure 30.35 in    
Wind  
Wind Speed 3 mph (ENE)    
Max Wind Speed 12 mph    
Max Gust Speed 16 mph    
Visibility 8 miles    
Events      
T = Trace of Precipitation, MM = Missing Value Source: NWS Daily Summary

Daily Weather History Graph

Daily Weather History Graph

Search for Another Location

Airport:

Trip Planner

Search our weather history database for the weather conditions in past years. The results will help you decide how hot, cold, wet, or windy it might be!

Date:

Astronomy

Jan. 07, 2013 Rise Set
Actual Time 6:58 AM CST 4:55 PM CST
Civil Twilight 6:30 AM CST 5:23 PM CST
Nautical Twilight 5:59 AM CST 5:54 PM CST
Astronomical Twilight 5:28 AM CST 6:25 PM CST
Moon 2:24 AM CST (1/7) 1:04 PM CST (1/7)
Length of Visible Light 10h 52m
Length of Day
9h 57m
Waning Crescent, 22% of the Moon is Illuminated
Jan 7
Waning Crescent
Jan 11
New
Jan 18
First Quarter
Jan 26
Full
Feb 3
Last Quarter

Hourly Weather History & Observations

Time (CST) Temp. Windchill Dew Point Humidity Pressure Visibility Wind Dir Wind Speed Gust Speed Precip Events Conditions
12:53 AM 34.0 °F 27.2 °F 27.0 °F 75% 30.38 in 7.0 mi NNE 8.1 mph - N/A   Clear
1:53 AM 33.1 °F 25.5 °F 26.1 °F 75% 30.38 in 8.0 mi NNE 9.2 mph 16.1 mph N/A   Clear
2:53 AM 30.9 °F 26.2 °F 24.1 °F 76% 30.38 in 8.0 mi NE 4.6 mph - N/A   Clear
3:53 AM 30.0 °F 26.5 °F 24.1 °F 79% 30.38 in 8.0 mi NE 3.5 mph - N/A   Clear
4:53 AM 30.0 °F 24.1 °F 24.1 °F 79% 30.38 in 8.0 mi NE 5.8 mph - N/A   Clear
5:53 AM 30.0 °F 26.5 °F 23.0 °F 75% 30.39 in 8.0 mi NE 3.5 mph - N/A   Clear
6:53 AM 30.0 °F - 23.0 °F 75% 30.41 in 8.0 mi Calm Calm - N/A   Clear
7:53 AM 30.0 °F - 24.1 °F 79% 30.43 in 6.0 mi Calm Calm - N/A   Haze
8:53 AM 33.1 °F - 25.0 °F 72% 30.44 in 6.0 mi Calm Calm - N/A   Haze
9:53 AM 37.9 °F - 27.0 °F 65% 30.44 in 8.0 mi Calm Calm - N/A   Clear
10:53 AM 39.9 °F - 28.0 °F 63% 30.41 in 8.0 mi Calm Calm - N/A   Clear
11:53 AM 44.1 °F 40.8 °F 27.0 °F 51% 30.36 in 10.0 mi Variable 5.8 mph - N/A   Clear
1:53 PM 51.1 °F - 26.1 °F 38% 30.31 in 10.0 mi ESE 3.5 mph - N/A   Clear
2:53 PM 52.0 °F - 27.0 °F 38% 30.31 in 10.0 mi ENE 3.5 mph - N/A   Clear
3:53 PM 51.1 °F - 28.9 °F 43% 30.30 in 10.0 mi SE 8.1 mph - N/A   Clear
5:53 PM 42.1 °F 39.2 °F 28.0 °F 58% 30.31 in 10.0 mi East 4.6 mph - N/A   Clear
6:53 PM 41.0 °F - 28.0 °F 60% 30.31 in 10.0 mi Calm Calm - N/A   Clear
7:53 PM 36.0 °F - 28.0 °F 73% 30.30 in 10.0 mi Calm Calm - N/A   Clear
8:53 PM 34.0 °F - 28.0 °F 79% 30.29 in 10.0 mi Calm Calm - N/A   Clear
9:53 PM 30.9 °F - 27.0 °F 85% 30.29 in 9.0 mi Calm Calm - N/A   Clear
10:53 PM 32.0 °F - 27.0 °F 82% 30.29 in 8.0 mi Calm Calm - N/A   Clear
11:53 PM 30.9 °F - 27.0 °F 85% 30.28 in 7.0 mi Calm Calm - N/A   Clear